Location: Brede
(50.9167°N, 0.6000°E)
Time: 13:26:00
(UTC+00:00)

Landsat 5 - Visible Passes

Search period start: 09 December 2021 00:00
Search period end: 19 December 2021 00:00
Orbit: 528 x 652 km, 98.2° (Epoch: 08 December)

Date Brightness Start Highest point End Pass type
(mag) Time Alt. Az. Time Alt. Az. Time Alt. Az.
09 Dec 6.0 03:56:45 10° ESE 04:00:01 20° ENE 04:00:07 20° ENE visible
09 Dec 3.6 05:30:41 10° S 05:35:08 61° WSW 05:36:39 38° NW visible
09 Dec 5.4 17:13:15 12° ESE 17:13:15 12° ESE 17:14:07 10° ESE visible
09 Dec 4.6 18:49:48 35° SSW 18:49:48 35° SSW 18:52:08 10° SSW visible
10 Dec 5.7 04:04:31 10° ESE 04:08:01 23° ENE 04:08:10 23° ENE visible
10 Dec 3.7 05:38:52 10° S 05:43:13 51° W 05:44:42 35° NW visible
10 Dec 5.2 17:21:27 14° ESE 17:21:27 14° ESE 17:22:45 10° SE visible
10 Dec 4.9 18:58:00 30° SW 18:58:00 30° SW 19:00:07 10° SSW visible
11 Dec 5.5 04:12:18 10° ESE 04:16:01 27° ENE 04:16:13 26° ENE visible
11 Dec 3.9 05:47:04 10° S 05:51:19 43° W 05:52:45 32° NW visible
11 Dec 5.1 17:29:38 16° ESE 17:29:38 16° ESE 17:31:15 10° SE visible
11 Dec 5.2 19:06:11 26° SW 19:06:11 26° SW 19:08:03 10° SW visible
12 Dec 5.3 04:20:09 10° SE 04:24:01 30° ENE 04:24:16 30° ENE visible
12 Dec 4.1 05:55:19 10° SSW 05:59:26 36° W 06:00:48 29° WNW visible
12 Dec 4.9 17:37:49 19° ESE 17:37:49 19° ESE 17:39:39 10° SE visible
12 Dec 5.5 19:14:22 22° SW 19:14:22 22° SW 19:15:58 10° SW visible
13 Dec 5.0 04:28:01 10° SE 04:32:03 35° ENE 04:32:18 35° ENE visible
13 Dec 4.4 06:03:36 10° SSW 06:07:32 31° W 06:08:51 26° WNW visible
13 Dec 4.8 17:45:59 21° SE 17:45:59 21° SE 17:47:59 10° SSE visible
13 Dec 5.8 19:22:32 19° WSW 19:22:32 19° WSW 19:23:51 10° SW visible
14 Dec 4.7 04:35:56 10° SE 04:40:04 41° ENE 04:40:21 40° ENE visible
14 Dec 4.6 06:11:56 10° SSW 06:15:39 26° W 06:16:54 23° WNW visible
14 Dec 4.6 17:54:09 24° SE 17:54:09 24° SE 17:56:16 10° SSE visible
14 Dec 6.0 19:30:41 16° WSW 19:30:41 16° WSW 19:31:41 10° SW visible
15 Dec 4.4 04:43:52 10° SE 04:48:06 48° ENE 04:48:25 47° NE visible
15 Dec 4.8 06:20:19 10° SW 06:23:46 22° W 06:24:56 20° WNW visible
15 Dec 4.5 18:02:18 27° SE 18:02:18 27° SE 18:04:30 10° SSE visible
15 Dec 6.3 19:38:50 13° WSW 19:38:50 13° WSW 19:39:29 10° WSW visible
16 Dec 4.1 04:51:50 10° SSE 04:56:08 57° ENE 04:56:27 55° NE visible
16 Dec 5.0 06:28:47 10° SW 06:31:54 19° W 06:32:59 17° WNW visible
16 Dec 4.4 18:10:26 30° SSE 18:10:26 30° SSE 18:12:42 10° S visible
16 Dec 6.5 19:46:59 11° WSW 19:46:59 11° WSW 19:47:14 10° WSW visible
17 Dec 3.8 04:59:50 10° SSE 05:04:11 67° ENE 05:04:31 64° NE visible
17 Dec 5.1 06:37:20 10° SW 06:40:02 16° W 06:41:03 15° WNW visible
17 Dec 4.4 18:18:34 32° SSE 18:18:34 32° SSE 18:20:50 10° S visible
18 Dec 6.7 03:35:35 10° E 03:36:02 11° ENE 03:36:02 11° ENE visible
18 Dec 3.5 05:07:51 10° SSE 05:12:13 80° ENE 05:12:35 72° NNE visible
18 Dec 5.3 06:46:01 10° WSW 06:48:11 14° W 06:49:07 13° WNW visible
18 Dec 4.4 18:26:42 33° S 18:26:42 33° S 18:28:57 10° S visible
